STARLINK-5540 (56340 NORAD) Tracking and Keplerian Element Data

This shows tracking and keplerian element data for the satellite.

Feedback or suggestion? Click here.




ElementValue
Catalog56340
NameSTARLINK-5540
Epoch Orbit183
Epoch Day127.16667824
Epoch Year2023
RAAN126.6542
Inclination97.6631
Eccentricity0.0001496
Argument of Perigee93.1132
Mean Anonmoly95.819
Mean Motion15.67816315
Decay Rate-0.00856556
L11 56340U 23058Z 23127.16667824 -.00856556 00000+0 -86579-2 0 9994
L22 56340 97.6631 126.6542 0001496 93.1132 95.8190 15.67816315 1834



Live tracking and technical data element details for STARLINK-5540 (NORAD 56340). STARLINK-5540 can be tracked NOW for your location showing map with azimuth and elevation plus other details from your city location.







IsCatalogInMostPopularTable: catalog: 56340, numindb: 2
Update: records affected: 1



GetName: 56340 STARLINK-5540

Hit Count: updated at: Mon, 05 Jun 2023 01:15:12 GMT